Location: Sungai Laei
(2.6000°N, 113.7167°E)
Time: 10:02:45
(UTC+00:00)

Meteor 2-20 Rocket - Pass Details

Date: 22 May 2022
Orbit: 940 x 960 km, 82.5° (Epoch: 06 July)

Event Time Altitude Azimuth Distance (km) Brightness Sun altitude
Exits shadow 20:58:09 - 192° (SSW) 2,730 6.5 -18.6°
Reaches altitude 10° 20:58:18 10° 192° (SSW) 2,673 6.5 -18.5°
Maximum altitude 21:04:22 66° 274° (W) 1,033 4.4 -17.1°
Drops below altitude 10° 21:10:26 10° 355° (N) 2,678 7.0 -15.7°
Sets 21:12:57 0° 358° (N) 3,624 7.8 -15.1°
